,,,PA_Meas_PMT16A,,PR_Meas_QMR101_102,,RH_Meas_QMH101,,SR_Meas_QMS101,,TA_Meas_QMH101,,GenWind,,GenWind,
date,time,status,PA,status,PR,status,RH,status,SR,status,TA,status,DirAvg,status,SpdAvg,
2011-09-27, 00:00:05,VALID,998.272,VALID,0,VALID,85.6349,VALID,0,VALID,23.9354,VALID,141,VALID,1.11328,
2011-09-27, 00:01:05,VALID,998.122,VALID,0,VALID,84.5286,VALID,0,VALID,23.9939,VALID,152,VALID,0.585938,
2011-09-27, 00:02:05,VALID,998.144,VALID,0,VALID,83.7274,VALID,0,VALID,24.072,VALID,102,VALID,0.932031,
2011-09-27, 00:03:05,VALID,998.127,VALID,0,VALID,83.2392,VALID,0,VALID,24.1696,VALID,115,VALID,1.07813,
2011-09-27, 00:04:05,VALID,998.052,VALID,0,VALID,82.5525,VALID,0,VALID,24.2263,VALID,115,VALID,0.178516,
2011-09-27, 00:05:05,VALID,998.067,VALID,0,VALID,82.522,VALID,0,VALID,24.2281,VALID,153,VALID,0.840625,
2011-09-27, 00:06:05,VALID,997.987,VALID,0,VALID,81.8429,VALID,0,VALID,24.2281,VALID,149,VALID,0.634375,
2011-09-27, 00:07:05,VALID,997.948,VALID,0,VALID,81.4233,VALID,0,VALID,24.2866,VALID,142,VALID,1.10039,
2011-09-27, 00:08:05,VALID,997.956,VALID,0,VALID,81.5454,VALID,0,VALID,24.3257,VALID,139,VALID,1.78906,
2011-09-27, 00:09:05,VALID,997.919,VALID,0,VALID,81.7361,VALID,0,VALID,24.3647,VALID,96,VALID,1.26094,
2011-09-27, 00:10:05,VALID,997.927,VALID,0,VALID,81.286,VALID,0,VALID,24.3647,VALID,165,VALID,1.0668,
2011-09-27, 00:11:05,VALID,997.889,VALID,0,VALID,81.6217,VALID,0,VALID,24.3452,VALID,172,VALID,1.10547,
2011-09-27, 00:12:05,VALID,997.922,VALID,0,VALID,81.0342,VALID,0,VALID,24.3647,VALID,159,VALID,0.885938,
2011-09-27, 00:13:05,VALID,997.937,VALID,0,VALID,80.1797,VALID,0,VALID,24.3842,VALID,162,VALID,1.3543,
2011-09-27, 00:14:05,VALID,997.917,VALID,0,VALID,79.6761,VALID,0,VALID,24.4818,VALID,137,VALID,1.29688,
2011-09-27, 00:15:05,VALID,997.937,VALID,0,VALID,80.1492,VALID,0,VALID,24.4623,VALID,151,VALID,1.16562,
2011-09-27, 00:16:05,VALID,997.909,VALID,0,VALID,77.7458,VALID,0,VALID,24.5013,VALID,174,VALID,2.15859,
2011-09-27, 00:17:05,VALID,997.859,VALID,0,VALID,75.4112,VALID,0,VALID,24.7142,VALID,171,VALID,1.95781,
2011-09-27, 00:18:05,VALID,997.892,VALID,0,VALID,74.3659,VALID,0,VALID,24.9308,VALID,164,VALID,1.71055,
2011-09-27, 00:19:05,VALID,997.923,VALID,0,VALID,73.1452,VALID,0,VALID,25.0869,VALID,149,VALID,1.52031,
2011-09-27, 00:20:05,VALID,997.93,VALID,0,VALID,72.3822,VALID,0,VALID,25.206,VALID,152,VALID,1.2418,
2011-09-27, 00:21:05,VALID,997.963,VALID,0,VALID,72.0389,VALID,0,VALID,25.2236,VALID,158,VALID,0.969922,
2011-09-27, 00:22:05,VALID,997.951,VALID,0,VALID,72.2449,VALID,0,VALID,25.2431,VALID,148,VALID,0.391016,
2011-09-27, 00:23:05,VALID,997.981,VALID,0,VALID,72.2449,VALID,0,VALID,25.2236,VALID,153,VALID,0.406641,
2011-09-27, 00:24:05,VALID,998.079,VALID,0,VALID,72.5424,VALID,0,VALID,25.204,VALID,134,VALID,0.720703,
2011-09-27, 00:25:05,VALID,998.022,VALID,0,VALID,73.107,VALID,0,VALID,25.1455,VALID,129,VALID,0.243359,
2011-09-27, 00:26:05,VALID,998.03,VALID,0,VALID,73.7174,VALID,0,VALID,25.0479,VALID,129,VALID,0.507031,
2011-09-27, 00:27:05,VALID,998,VALID,0,VALID,72.3975,VALID,0,VALID,24.9503,VALID,99,VALID,1.02578,
2011-09-27, 00:28:05,VALID,997.965,VALID,0,VALID,74.4422,VALID,0,VALID,24.9503,VALID,95,VALID,0.492578,
2011-09-27, 00:29:05,VALID,997.961,VALID,0,VALID,75.0984,VALID,0,VALID,24.8546,VALID,58,VALID,1.15195,
2011-09-27, 00:30:05,VALID,997.939,VALID,0,VALID,75.8079,VALID,0,VALID,24.6965,VALID,78,VALID,0.859375,
2011-09-27, 00:31:05,VALID,997.896,VALID,0,VALID,76.5098,VALID,0,VALID,24.5794,VALID,58,VALID,0.680078,
2011-09-27, 00:32:05,VALID,997.855,VALID,0,VALID,76.4717,VALID,0,VALID,24.4428,VALID,122,VALID,1.17891,
2011-09-27, 00:33:05,VALID,997.881,VALID,0,VALID,78.3715,VALID,0,VALID,24.3257,VALID,295,VALID,1.10195,
2011-09-27, 00:34:05,VALID,997.868,VALID,0,VALID,78.6461,VALID,0,VALID,24.2281,VALID,291,VALID,0.583984,
2011-09-27, 00:35:05,VALID,997.826,VALID,0,VALID,78.7606,VALID,0,VALID,24.2476,VALID,291,VALID,0.670703,
2011-09-27, 00:36:05,VALID,997.808,VALID,0,VALID,79.7143,VALID,0,VALID,24.2458,VALID,291,VALID,0.255078,
2011-09-27, 00:37:05,VALID,997.775,VALID,0,VALID,71.131,VALID,0,VALID,24.2866,VALID,191,VALID,1.78047,
2011-09-27, 00:38:05,VALID,997.757,VALID,0,VALID,68.0562,VALID,0,VALID,24.9308,VALID,163,VALID,1.36328,
2011-09-27, 00:39:05,VALID,997.768,VALID,0,VALID,65.424,VALID,0,VALID,25.3212,VALID,174,VALID,2.25312,
2011-09-27, 00:40:05,VALID,997.738,VALID,0,VALID,64.2109,VALID,0,VALID,25.6336,VALID,167,VALID,2.79258,
2011-09-27, 00:41:04,VALID,997.756,VALID,0,VALID,65.0654,VALID,0,VALID,25.7312,VALID,148,VALID,1.975,
2011-09-27, 00:42:04,VALID,997.702,VALID,0,VALID,68.7887,VALID,0,VALID,25.6746,VALID,96,VALID,1.22344,
2011-09-27, 00:43:04,VALID,997.716,VALID,0,VALID,69.605,VALID,0,VALID,25.4383,VALID,134,VALID,0.841406,
2011-09-27, 00:44:04,VALID,997.746,VALID,0,VALID,69.5669,VALID,0,VALID,25.2217,VALID,135,VALID,0.541406,
2011-09-27, 00:45:04,VALID,997.737,VALID,0,VALID,67.6976,VALID,0,VALID,25.165,VALID,182,VALID,0.614453,
2011-09-27, 00:46:04,VALID,997.721,VALID,0,VALID,65.6681,VALID,0,VALID,25.2431,VALID,161,VALID,1.26992,
2011-09-27, 00:47:04,VALID,997.638,VALID,0,VALID,64.7755,VALID,0,VALID,25.3602,VALID,163,VALID,1.17031,
2011-09-27, 00:48:04,VALID,997.625,VALID,0,VALID,63.5471,VALID,0,VALID,25.6121,VALID,171,VALID,1.57734,
2011-09-27, 00:49:04,VALID,997.657,VALID,0,VALID,61.9067,VALID,0,VALID,25.9655,VALID,168,VALID,2.42539,
2011-09-27, 00:50:04,VALID,997.639,VALID,0,VALID,61.777,VALID,0,VALID,26.1412,VALID,164,VALID,2.50898,
2011-09-27, 00:51:04,VALID,997.608,VALID,0,VALID,60.7547,VALID,0,VALID,26.2389,VALID,180,VALID,2.60938,
2011-09-27, 00:52:04,VALID,997.561,VALID,0,VALID,61.1667,VALID,0,VALID,26.3365,VALID,167,VALID,1.80039,
2011-09-27, 00:53:04,VALID,997.505,VALID,0,VALID,59.9459,VALID,0,VALID,26.4341,VALID,194,VALID,3.04297,
2011-09-27, 00:54:04,VALID,997.498,VALID,0,VALID,58.9312,VALID,0,VALID,26.7271,VALID,192,VALID,2.73047,
2011-09-27, 00:55:04,VALID,997.483,VALID,0,VALID,57.741,VALID,0,VALID,26.9594,VALID,200,VALID,2.10156,
2011-09-27, 00:56:04,VALID,997.481,VALID,0,VALID,57.7639,VALID,0,VALID,27.0982,VALID,173,VALID,3.55664,
2011-09-27, 00:57:04,VALID,997.435,VALID,0,VALID,56.6957,VALID,0,VALID,27.1568,VALID,181,VALID,3.88086,
2011-09-27, 00:58:04,VALID,997.43,VALID,0,VALID,56.4668,VALID,0,VALID,27.3542,VALID,170,VALID,4.8668,
2011-09-27, 00:59:04,VALID,997.43,VALID,0,VALID,56.7339,VALID,0,VALID,27.3521,VALID,169,VALID,3.71758,
2011-09-27, 01:00:04,VALID,997.422,VALID,0,VALID,56.1922,VALID,0,VALID,27.3912,VALID,173,VALID,5.49453,
2011-09-27, 01:01:04,VALID,997.452,VALID,0,VALID,57.8249,VALID,0,VALID,27.3131,VALID,160,VALID,3.59219,
2011-09-27, 01:02:04,VALID,997.438,VALID,0,VALID,58.2903,VALID,0,VALID,27.0982,VALID,153,VALID,2.55117,
2011-09-27, 01:03:04,VALID,997.444,VALID,0,VALID,59.0761,VALID,0,VALID,26.9224,VALID,160,VALID,2.50469,
2011-09-27, 01:04:04,VALID,997.446,VALID,0,VALID,58.3666,VALID,0,VALID,26.8638,VALID,164,VALID,3.73281,
2011-09-27, 01:05:04,VALID,997.453,VALID,0,VALID,57.3519,VALID,0,VALID,27.0591,VALID,183,VALID,4.30742,
2011-09-27, 01:06:04,VALID,997.391,VALID,0,VALID,56.7415,VALID,0,VALID,27.1763,VALID,155,VALID,4.52031,
2011-09-27, 01:07:04,VALID,997.34,VALID,0,VALID,58.008,VALID,0,VALID,27.1959,VALID,152,VALID,3.01797,
2011-09-27, 01:08:04,VALID,997.379,VALID,0,VALID,58.2827,VALID,0,VALID,27.0375,VALID,165,VALID,2.94648,
2011-09-27, 01:09:04,VALID,997.376,VALID,0,VALID,58.4658,VALID,0,VALID,27.0201,VALID,160,VALID,2.82383,
2011-09-27, 01:10:04,VALID,997.306,VALID,0,VALID,57.8783,VALID,0,VALID,27.0396,VALID,172,VALID,4.06055,
2011-09-27, 01:11:04,VALID,997.279,VALID,0,VALID,58.0843,VALID,0,VALID,27.0201,VALID,166,VALID,3.36797,
2011-09-27, 01:12:04,VALID,997.277,VALID,0,VALID,58.0843,VALID,0,VALID,27.0201,VALID,166,VALID,4.11211,
2011-09-27, 01:13:04,VALID,997.294,VALID,0,VALID,57.5197,VALID,0,VALID,27.0766,VALID,173,VALID,4.3918,
2011-09-27, 01:14:04,VALID,997.262,VALID,0,VALID,57.7257,VALID,0,VALID,27.0982,VALID,169,VALID,2.99258,
2011-09-27, 01:15:04,VALID,997.243,VALID,0,VALID,57.863,VALID,0,VALID,27.0591,VALID,156,VALID,3.86328,
2011-09-27, 01:16:04,VALID,997.235,VALID,0,VALID,57.6952,VALID,0,VALID,27.0571,VALID,172,VALID,4.1418,
2011-09-27, 01:17:04,VALID,997.196,VALID,0,VALID,57.6876,VALID,0,VALID,27.0766,VALID,159,VALID,4.16953,
2011-09-27, 01:18:04,VALID,997.164,VALID,0,VALID,57.4358,VALID,0,VALID,27.0787,VALID,171,VALID,4.8457,
2011-09-27, 01:19:04,VALID,997.151,VALID,0,VALID,57.8554,VALID,0,VALID,27.018,VALID,170,VALID,4.0918,
2011-09-27, 01:20:04,VALID,997.148,VALID,0,VALID,57.8859,VALID,0,VALID,27.0005,VALID,164,VALID,5.19453,
2011-09-27, 01:21:04,VALID,997.114,VALID,0,VALID,58.3513,VALID,0,VALID,26.9419,VALID,156,VALID,4.37266,
2011-09-27, 01:22:04,VALID,997.141,VALID,0,VALID,58.0996,VALID,0,VALID,26.9029,VALID,163,VALID,5.12695,
2011-09-27, 01:23:04,VALID,997.128,VALID,0,VALID,58.9922,VALID,0,VALID,26.8638,VALID,163,VALID,4.17891,
2011-09-27, 01:24:04,VALID,997.135,VALID,0,VALID,58.9846,VALID,0,VALID,26.7641,VALID,164,VALID,4.24414,
2011-09-27, 01:25:04,VALID,997.105,VALID,0,VALID,59.2974,VALID,0,VALID,26.7446,VALID,161,VALID,4.08398,
2011-09-27, 01:26:04,VALID,997.094,VALID,0,VALID,59.4424,VALID,0,VALID,26.688,VALID,162,VALID,4.31602,
2011-09-27, 01:27:04,VALID,997.09,VALID,0,VALID,59.7628,VALID,0,VALID,26.6685,VALID,165,VALID,4.94453,
2011-09-27, 01:28:04,VALID,997.097,VALID,0,VALID,59.717,VALID,0,VALID,26.5884,VALID,172,VALID,4.26055,
2011-09-27, 01:29:04,VALID,997.112,VALID,0,VALID,59.8773,VALID,0,VALID,26.6274,VALID,172,VALID,3.49102,
2011-09-27, 01:30:04,VALID,997.124,VALID,0,VALID,59.8239,VALID,0,VALID,26.5884,VALID,172,VALID,3.3418,
2011-09-27, 01:31:04,VALID,997.117,VALID,0,VALID,58.832,VALID,0,VALID,26.5493,VALID,179,VALID,3.73945,
2011-09-27, 01:32:04,VALID,997.094,VALID,0,VALID,58.4047,VALID,0,VALID,26.7055,VALID,174,VALID,4.43828,
2011-09-27, 01:33:04,VALID,997.103,VALID,0,VALID,58.9388,VALID,0,VALID,26.7641,VALID,169,VALID,2.71328,
2011-09-27, 01:34:04,VALID,997.058,VALID,0,VALID,58.3666,VALID,0,VALID,26.7466,VALID,174,VALID,4.24453,
2011-09-27, 01:35:04,VALID,997.084,VALID,0,VALID,58.5344,VALID,0,VALID,26.7836,VALID,178,VALID,3.92812,
2011-09-27, 01:36:04,VALID,997.054,VALID,0,VALID,58.4353,VALID,0,VALID,26.7836,VALID,174,VALID,3.44531,
2011-09-27, 01:37:04,VALID,997.043,VALID,0,VALID,58.6107,VALID,0,VALID,26.7857,VALID,175,VALID,2.98281,
2011-09-27, 01:38:04,VALID,997.039,VALID,0,VALID,58.7328,VALID,0,VALID,26.7466,VALID,179,VALID,3.37891,
2011-09-27, 01:39:04,VALID,997.022,VALID,0,VALID,58.8091,VALID,0,VALID,26.7661,VALID,177,VALID,3.13281,
2011-09-27, 01:40:04,VALID,997.001,VALID,0,VALID,59.1143,VALID,0,VALID,26.7055,VALID,192,VALID,2.24609,
2011-09-27, 01:41:04,VALID,997.013,VALID,0,VALID,59.2516,VALID,0,VALID,26.6685,VALID,186,VALID,2.01016,
2011-09-27, 01:42:04,VALID,996.996,VALID,0,VALID,58.9312,VALID,0,VALID,26.6469,VALID,184,VALID,3.41211,
2011-09-27, 01:43:04,VALID,996.979,VALID,0,VALID,59.0151,VALID,0,VALID,26.7055,VALID,171,VALID,2.59336,
2011-09-27, 01:44:04,VALID,996.985,VALID,0,VALID,59.038,VALID,0,VALID,26.7076,VALID,179,VALID,3.1332,
2011-09-27, 01:45:04,VALID,996.999,VALID,0,VALID,59.0151,VALID,0,VALID,26.6665,VALID,179,VALID,3.17695,
2011-09-27, 01:46:04,VALID,996.969,VALID,0,VALID,59.3966,VALID,0,VALID,26.6274,VALID,170,VALID,2.58711,
2011-09-27, 01:47:04,VALID,996.97,VALID,0,VALID,59.862,VALID,0,VALID,26.5298,VALID,173,VALID,2.29805,
2011-09-27, 01:48:04,VALID,996.946,VALID,0,VALID,60.0756,VALID,0,VALID,26.4732,VALID,173,VALID,2.00039,
2011-09-27, 01:49:04,VALID,996.933,VALID,0,VALID,60.5181,VALID,0,VALID,26.3736,VALID,161,VALID,2.08984,
2011-09-27, 01:50:04,VALID,996.949,VALID,0,VALID,61.2124,VALID,0,VALID,26.2759,VALID,146,VALID,2.13398,
2011-09-27, 01:51:04,VALID,996.95,VALID,0,VALID,62.5629,VALID,0,VALID,26.0807,VALID,132,VALID,1.74141,
2011-09-27, 01:52:04,VALID,996.935,VALID,0,VALID,65.2943,VALID,0,VALID,25.8483,VALID,121,VALID,1.2793,
2011-09-27, 01:53:04,VALID,996.925,VALID,0,VALID,68.6742,VALID,0,VALID,25.4774,VALID,116,VALID,1.25664,
2011-09-27, 01:54:04,VALID,996.955,VALID,0,VALID,70.5816,VALID,0,VALID,25.1064,VALID,114,VALID,1.29219,
2011-09-27, 01:55:04,VALID,996.959,VALID,0,VALID,72.1686,VALID,0,VALID,24.7727,VALID,117,VALID,1.50586,
2011-09-27, 01:56:04,VALID,996.954,VALID,0,VALID,73.1528,VALID,0,VALID,24.5599,VALID,123,VALID,1.29844,
2011-09-27, 01:57:04,VALID,996.986,VALID,0,VALID,74.0302,VALID,0,VALID,24.3647,VALID,122,VALID,0.894531,
2011-09-27, 01:58:04,VALID,996.992,VALID,0,VALID,74.6558,VALID,0,VALID,24.1872,VALID,125,VALID,0.702344,
2011-09-27, 01:59:04,VALID,996.943,VALID,0,VALID,74.6558,VALID,0,VALID,24.072,VALID,146,VALID,0.79375,
2011-09-27, 02:00:04,VALID,996.904,VALID,0,VALID,74.8466,VALID,0,VALID,24.0134,VALID,145,VALID,1.18633,
2011-09-27, 02:01:04,VALID,996.854,VALID,0,VALID,74.9915,VALID,0,VALID,24.0329,VALID,119,VALID,1.02852,
2011-09-27, 02:02:04,VALID,996.875,VALID,0,VALID,75.1975,VALID,0,VALID,23.9726,VALID,112,VALID,0.964453,
2011-09-27, 02:03:04,VALID,996.909,VALID,0,VALID,75.7392,VALID,0,VALID,23.9354,VALID,115,VALID,1.07148,
2011-09-27, 02:04:04,VALID,996.909,VALID,0,VALID,75.9986,VALID,0,VALID,23.8768,VALID,123,VALID,1.23672,
2011-09-27, 02:05:04,VALID,996.919,VALID,0,VALID,76.2886,VALID,0,VALID,23.8165,VALID,126,VALID,0.709766,
2011-09-27, 02:06:04,VALID,996.935,VALID,0,VALID,76.7463,VALID,0,VALID,23.7793,VALID,128,VALID,0.652344,
2011-09-27, 02:07:04,VALID,996.985,VALID,0,VALID,77.1355,VALID,0,VALID,23.6799,VALID,128,VALID,0.475,
2011-09-27, 02:08:04,VALID,996.984,VALID,0,VALID,77.4025,VALID,0,VALID,23.6622,VALID,128,VALID,0.267578,
2011-09-27, 02:09:04,VALID,997.004,VALID,0,VALID,77.6924,VALID,0,VALID,23.6232,VALID,128,VALID,0.177344,
2011-09-27, 02:10:04,VALID,997.006,VALID,0,VALID,78.0434,VALID,0,VALID,23.5646,VALID,128,VALID,0.222656,
2011-09-27, 02:11:04,VALID,996.968,VALID,0,VALID,78.5317,VALID,0,VALID,23.4848,VALID,128,VALID,0.329297,
2011-09-27, 02:12:04,VALID,997.004,VALID,0,VALID,78.5851,VALID,0,VALID,23.4653,VALID,128,VALID,0.310937,
2011-09-27, 02:13:04,VALID,997.003,VALID,0,VALID,78.524,VALID,0,VALID,23.4671,VALID,9,VALID,0.729688,
2011-09-27, 02:14:04,VALID,996.976,VALID,0,VALID,78.4172,VALID,0,VALID,23.4671,VALID,9,VALID,0.503906,
2011-09-27, 02:15:04,VALID,997.004,VALID,0,VALID,78.318,VALID,0,VALID,23.4458,VALID,9,VALID,0.357031,
2011-09-27, 02:16:04,VALID,997.032,VALID,0,VALID,78.6156,VALID,0,VALID,23.428,VALID,9,VALID,0.307031,
2011-09-27, 02:17:04,VALID,997.048,VALID,0,VALID,79.3023,VALID,0,VALID,23.3287,VALID,11,VALID,1.02578,
2011-09-27, 02:18:04,VALID,997.067,VALID,0,VALID,80.2026,VALID,0,VALID,23.1921,VALID,23,VALID,1.23203,
2011-09-27, 02:19:04,VALID,997.071,VALID,0,VALID,81.0342,VALID,0,VALID,23.0751,VALID,20,VALID,1.56719,
2011-09-27, 02:20:04,VALID,997.045,VALID,0,VALID,82.4991,VALID,0,VALID,22.9776,VALID,20,VALID,1.88945,
2011-09-27, 02:21:04,VALID,997.072,VALID,0,VALID,83.5825,VALID,0,VALID,22.841,VALID,20,VALID,1.93906,
2011-09-27, 02:22:04,VALID,997.074,VALID,0,VALID,84.3378,VALID,0,VALID,22.724,VALID,19,VALID,1.45977,
2011-09-27, 02:23:04,VALID,997.056,VALID,0,VALID,84.7651,VALID,0,VALID,22.6069,VALID,13,VALID,1.19453,
2011-09-27, 02:24:04,VALID,997.073,VALID,0,VALID,85.0779,VALID,0,VALID,22.5484,VALID,13,VALID,1.06445,
2011-09-27, 02:25:04,VALID,997.075,VALID,0,VALID,85.2915,VALID,0,VALID,22.4899,VALID,13,VALID,0.786328,
2011-09-27, 02:26:04,VALID,997.1,VALID,0,VALID,85.4289,VALID,0,VALID,22.4509,VALID,13,VALID,0.269531,
2011-09-27, 02:27:04,VALID,997.094,VALID,0,VALID,85.7798,VALID,0,VALID,22.4119,VALID,13,VALID,0.690234,
2011-09-27, 02:28:04,VALID,997.059,VALID,0,VALID,85.94,VALID,0,VALID,22.4314,VALID,14,VALID,1.01641,
2011-09-27, 02:29:04,VALID,997.088,VALID,0,VALID,85.3907,VALID,0,VALID,22.5111,VALID,27,VALID,0.417969,
2011-09-27, 02:30:04,VALID,997.117,VALID,0,VALID,85.4746,VALID,0,VALID,22.5289,VALID,281,VALID,0.818359,
2011-09-27, 02:31:04,VALID,997.12,VALID,0,VALID,85.2229,VALID,0,VALID,22.6264,VALID,281,VALID,0.408594,
2011-09-27, 02:32:04,VALID,997.126,VALID,0,VALID,84.8566,VALID,0.112286,VALID,22.6655,VALID,281,VALID,0.241016,
2011-09-27, 02:33:04,VALID,997.12,VALID,0,VALID,84.5438,VALID,0,VALID,22.724,VALID,320,VALID,0.796875,
2011-09-27, 02:34:04,VALID,997.118,VALID,0,VALID,84.2463,VALID,0,VALID,22.8037,VALID,321,VALID,0.848047,
2011-09-27, 02:35:04,VALID,997.103,VALID,0,VALID,83.9258,VALID,0.112286,VALID,22.841,VALID,321,VALID,0.590234,
2011-09-27, 02:36:04,VALID,997.091,VALID,0,VALID,83.8953,VALID,0,VALID,22.8215,VALID,26,VALID,0.694531,
2011-09-27, 02:37:04,VALID,997.097,VALID,0,VALID,83.8724,VALID,0.112286,VALID,22.7825,VALID,73,VALID,0.994531,
2011-09-27, 02:38:04,VALID,997.09,VALID,0,VALID,83.5062,VALID,0,VALID,22.7435,VALID,94,VALID,0.829297,
2011-09-27, 02:39:04,VALID,997.072,VALID,0,VALID,83.6588,VALID,0,VALID,22.685,VALID,94,VALID,0.709375,
2011-09-27, 02:40:04,VALID,997.041,VALID,0,VALID,83.9563,VALID,0,VALID,22.6087,VALID,86,VALID,0.983203,
2011-09-27, 02:41:04,VALID,997.014,VALID,0,VALID,84.4217,VALID,0,VALID,22.5111,VALID,79,VALID,1.12461,
2011-09-27, 02:42:04,VALID,997.023,VALID,0,VALID,84.9482,VALID,0,VALID,22.4136,VALID,79,VALID,0.781641,
2011-09-27, 02:43:04,VALID,997.023,VALID,0,VALID,85.3831,VALID,0,VALID,22.3161,VALID,79,VALID,0.517578,
2011-09-27, 02:44:04,VALID,997.047,VALID,0,VALID,85.8714,VALID,0,VALID,22.2397,VALID,79,VALID,0.164844,
2011-09-27, 02:45:04,VALID,997.019,VALID,0,VALID,86.1003,VALID,0,VALID,22.16,VALID,79,VALID,0.3375,
2011-09-27, 02:46:04,VALID,997.012,VALID,0,VALID,86.558,VALID,0,VALID,22.121,VALID,79,VALID,0.51875,
2011-09-27, 02:47:04,VALID,997.025,VALID,0,VALID,87.0616,VALID,0,VALID,22.1032,VALID,79,VALID,0.310937,
2011-09-27, 02:48:04,VALID,997.033,VALID,0,VALID,87.1379,VALID,0,VALID,22.0625,VALID,79,VALID,0.0324219,
2011-09-27, 02:49:04,VALID,997.019,VALID,0,VALID,87.115,VALID,0,VALID,22.043,VALID,79,VALID,0.00703125,
2011-09-27, 02:50:04,VALID,997.012,VALID,0,VALID,87.4431,VALID,0,VALID,22.043,VALID,81,VALID,0.680859,
2011-09-27, 02:51:04,VALID,997.015,VALID,0,VALID,87.7025,VALID,0,VALID,22.0235,VALID,87,VALID,1.02305,
2011-09-27, 02:52:04,VALID,997,VALID,0,VALID,88.1908,VALID,0,VALID,22.0235,VALID,81,VALID,0.733594,
2011-09-27, 02:53:04,VALID,996.994,VALID,0,VALID,88.0763,VALID,0,VALID,22.004,VALID,81,VALID,0,
2011-09-27, 02:54:04,VALID,996.988,VALID,0,VALID,88.0763,VALID,0,VALID,21.9667,VALID,81,VALID,0,
2011-09-27, 02:55:04,VALID,997.007,VALID,0,VALID,88.1908,VALID,0,VALID,21.9455,VALID,81,VALID,0.0242187,
2011-09-27, 02:56:04,VALID,996.959,VALID,0,VALID,88.29,VALID,0,VALID,21.9862,VALID,81,VALID,0.0925781,
2011-09-27, 02:57:04,VALID,996.995,VALID,0,VALID,88.2518,VALID,0,VALID,21.9862,VALID,82,VALID,0.183203,
2011-09-27, 02:58:04,VALID,997.017,VALID,0,VALID,87.1837,VALID,0,VALID,21.9845,VALID,96,VALID,0.639453,
2011-09-27, 02:59:04,VALID,996.979,VALID,0,VALID,86.1766,VALID,0,VALID,22.0837,VALID,202,VALID,1.35,
2011-09-27, 03:00:04,VALID,997.032,VALID,0,VALID,84.8261,VALID,0,VALID,22.3356,VALID,235,VALID,0.335156,
2011-09-27, 03:01:04,VALID,996.98,VALID,0,VALID,84.1547,VALID,0,VALID,22.4136,VALID,235,VALID,0.201172,
2011-09-27, 03:02:04,VALID,996.955,VALID,0,VALID,83.6969,VALID,0,VALID,22.4738,VALID,235,VALID,0.295703,
2011-09-27, 03:03:04,VALID,996.953,VALID,0,VALID,81.2249,VALID,0,VALID,22.5714,VALID,253,VALID,1.04375,
2011-09-27, 03:04:04,VALID,996.962,VALID,0,VALID,79.9432,VALID,0,VALID,22.7452,VALID,247,VALID,0.480078,
2011-09-27, 03:05:04,VALID,996.915,VALID,0,VALID,75.991,VALID,0,VALID,23.1762,VALID,235,VALID,0.978125,
2011-09-27, 03:06:04,VALID,996.928,VALID,0,VALID,72.2678,VALID,0,VALID,23.6817,VALID,208,VALID,1.3625,
2011-09-27, 03:07:04,VALID,996.886,VALID,0,VALID,67.4611,VALID,0,VALID,24.2476,VALID,201,VALID,1.94375,
2011-09-27, 03:08:04,VALID,996.901,VALID,0,VALID,64.4093,VALID,0,VALID,24.8741,VALID,212,VALID,1.86641,
2011-09-27, 03:09:04,VALID,996.916,VALID,0,VALID,62.2348,VALID,0,VALID,25.2841,VALID,209,VALID,1.50352,
2011-09-27, 03:10:04,VALID,996.929,VALID,0,VALID,60.9988,VALID,0,VALID,25.5574,VALID,207,VALID,1.49258,
2011-09-27, 03:11:04,VALID,996.917,VALID,0,VALID,59.862,VALID,0,VALID,25.8112,VALID,206,VALID,2.63867,
2011-09-27, 03:12:04,VALID,996.904,VALID,0,VALID,58.9617,VALID,0,VALID,26.0436,VALID,210,VALID,2.30742,
2011-09-27, 03:13:04,VALID,996.9,VALID,0,VALID,58.0004,VALID,0,VALID,26.1432,VALID,205,VALID,2.19258,
2011-09-27, 03:14:04,VALID,996.892,VALID,0,VALID,58.2064,VALID,0,VALID,26.2193,VALID,201,VALID,2.28711,
2011-09-27, 03:15:04,VALID,996.906,VALID,0,VALID,57.5807,VALID,0,VALID,26.2974,VALID,197,VALID,2.58398,
2011-09-27, 03:16:04,VALID,996.869,VALID,0,VALID,57.2221,VALID,0,VALID,26.4166,VALID,204,VALID,2.23359,
2011-09-27, 03:17:04,VALID,996.861,VALID,0,VALID,57.0924,VALID,0,VALID,26.4361,VALID,215,VALID,1.84453,
2011-09-27, 03:18:04,VALID,996.83,VALID,0,VALID,57.4053,VALID,0,VALID,26.4537,VALID,207,VALID,2.21523,
2011-09-27, 03:19:04,VALID,996.848,VALID,0,VALID,56.7186,VALID,0,VALID,26.5729,VALID,210,VALID,1.81914,
2011-09-27, 03:20:04,VALID,996.869,VALID,0,VALID,56.5507,VALID,0,VALID,26.5513,VALID,201,VALID,1.50664,
2011-09-27, 03:21:04,VALID,996.867,VALID,0,VALID,56.7796,VALID,0,VALID,26.4927,VALID,201,VALID,2.23906,
2011-09-27, 03:22:04,VALID,996.839,VALID,0,VALID,56.4363,VALID,0,VALID,26.5533,VALID,186,VALID,2.62617,
2011-09-27, 03:23:04,VALID,996.869,VALID,0,VALID,56.5965,VALID,0,VALID,26.5729,VALID,205,VALID,2.00586,
2011-09-27, 03:24:04,VALID,996.881,VALID,0,VALID,56.4439,VALID,0,VALID,26.5729,VALID,190,VALID,2.12109,
2011-09-27, 03:25:04,VALID,996.88,VALID,0,VALID,56.711,VALID,0,VALID,26.5318,VALID,171,VALID,2.86562,
2011-09-27, 03:26:04,VALID,996.904,VALID,0,VALID,56.7796,VALID,0,VALID,26.5904,VALID,173,VALID,2.54375,
2011-09-27, 03:27:04,VALID,996.887,VALID,0,VALID,56.5889,VALID,0,VALID,26.5513,VALID,174,VALID,2.8293,
2011-09-27, 03:28:04,VALID,996.912,VALID,0,VALID,56.8102,VALID,0,VALID,26.5708,VALID,177,VALID,2.45664,
2011-09-27, 03:29:04,VALID,996.909,VALID,0,VALID,56.978,VALID,0,VALID,26.5513,VALID,171,VALID,1.89609,
2011-09-27, 03:30:04,VALID,996.91,VALID,0,VALID,56.9551,VALID,0,VALID,26.4907,VALID,173,VALID,2.12148,
2011-09-27, 03:31:04,VALID,996.931,VALID,0,VALID,57.9012,VALID,0,VALID,26.4927,VALID,194,VALID,1.36445,
2011-09-27, 03:32:04,VALID,996.875,VALID,0,VALID,57.9012,VALID,0,VALID,26.4537,VALID,188,VALID,1.36289,
2011-09-27, 03:33:04,VALID,996.9,VALID,0,VALID,57.8554,VALID,0,VALID,26.3951,VALID,181,VALID,0.775391,
2011-09-27, 03:34:04,VALID,996.891,VALID,0,VALID,59.1982,VALID,0,VALID,26.2954,VALID,151,VALID,1.11328,
2011-09-27, 03:35:04,VALID,996.928,VALID,0,VALID,65.569,VALID,0,VALID,25.983,VALID,42,VALID,0.754297,
2011-09-27, 03:36:04,VALID,996.92,VALID,0,VALID,68.9489,VALID,0,VALID,25.3017,VALID,23,VALID,1.19258,
2011-09-27, 03:37:04,VALID,996.975,VALID,0,VALID,71.5429,VALID,0,VALID,24.638,VALID,22,VALID,0.624609,
2011-09-27, 03:38:04,VALID,996.955,VALID,0,VALID,74.2744,VALID,0,VALID,24.111,VALID,27,VALID,1.31289,
2011-09-27, 03:39:04,VALID,996.982,VALID,0,VALID,76.2275,VALID,0,VALID,23.6036,VALID,12,VALID,0.810547,
2011-09-27, 03:40:04,VALID,996.945,VALID,0,VALID,77.7458,VALID,0,VALID,23.2134,VALID,10,VALID,0.496484,
2011-09-27, 03:41:04,VALID,996.937,VALID,0,VALID,79.0429,VALID,0,VALID,22.919,VALID,10,VALID,0.515625,
2011-09-27, 03:42:04,VALID,996.914,VALID,0,VALID,78.1502,VALID,0,VALID,22.7257,VALID,123,VALID,1.27266,
2011-09-27, 03:43:04,VALID,996.944,VALID,0,VALID,76.7387,VALID,0,VALID,22.8427,VALID,133,VALID,1.24336,
2011-09-27, 03:44:04,VALID,996.936,VALID,0,VALID,76.8074,VALID,0,VALID,22.9988,VALID,75,VALID,0.296484,
2011-09-27, 03:45:04,VALID,996.961,VALID,0,VALID,76.7692,VALID,0,VALID,22.9971,VALID,82,VALID,0.610156,
2011-09-27, 03:46:04,VALID,996.972,VALID,0,VALID,78.0281,VALID,0,VALID,22.9793,VALID,38,VALID,1.51055,